Location: Madrid
(40.4000°N, 3.6830°W)
Time: 18:21:48
(UTC+01:00)

ISS - Pass Details

Date: 24 January 2020
Orbit: 415 x 422 km, 51.6° (Epoch: 23 January)

Event Time Altitude Azimuth Distance (km) Brightness Sun altitude
Rises 19:56:49 0° 267° (W) 2,365 1.7 -17.9°
Reaches altitude 10° 19:59:13 10° 283° (WNW) 1,502 0.1 -18.3°
Maximum altitude 20:01:58 23° 337° (NNW) 956 -1.8 -18.8°
Enters shadow 20:02:47 21° 360° (N) 1,018 -1.9 -19.0°
